Hourly Weather Kismányok

Today, 21 October, Wednesday

Time Temperature Precipitation Wind Pressure Humidity
00:00 +8°C° 0 mm 3 mps 754 mmHg 68%
01:00 +8°C° 0 mm 3 mps 753 mmHg 71%
02:00 +8°C° 0 mm 3 mps 753 mmHg 72%
03:00 +8°C° 0 mm 3 mps 753 mmHg 72%
04:00 +8°C° 0 mm 3 mps 752 mmHg 73%
05:00 +8°C° 0 mm 3 mps 752 mmHg 73%
06:00 +8°C° 0 mm 3 mps 752 mmHg 74%
07:00 +8°C° 0 mm 3 mps 752 mmHg 72%
08:00 +10°C° 0 mm 3 mps 752 mmHg 66%
09:00 +12°C° 0 mm 4 mps 752 mmHg 60%
10:00 +14°C° 0 mm 4 mps 752 mmHg 53%
11:00 +15°C° 0 mm 5 mps 752 mmHg 50%
12:00 +17°C° 0 mm 5 mps 752 mmHg 48%
13:00 +19°C° 0 mm 5 mps 751 mmHg 45%
14:00 +17°C° 0 mm 5 mps 751 mmHg 47%
15:00 +17°C° 0 mm 4 mps 751 mmHg 50%
16:00 +17°C° 0 mm 3 mps 750 mmHg 53%
17:00 +16°C° 0 mm 3 mps 750 mmHg 55%
18:00 +13°C° 0 mm 3 mps 751 mmHg 58%
19:00 +12°C° 0 mm 3 mps 751 mmHg 60%
20:00 +12°C° 0 mm 3 mps 751 mmHg 62%
21:00 +12°C° 0 mm 3 mps 751 mmHg 63%
22:00 +11°C° 0 mm 3 mps 751 mmHg 65%
23:00 +11°C° 0 mm 3 mps 751 mmHg 66%

Tomorrow, 22 October, Thursday

Time Temperature Precipitation Wind Pressure Humidity
00:00 +11°C° 0 mm 3 mps 751 mmHg 67%
01:00 +11°C° 0 mm 3 mps 751 mmHg 67%
02:00 +10°C° 0 mm 3 mps 751 mmHg 68%
03:00 +10°C° 0 mm 3 mps 751 mmHg 69%
04:00 +10°C° 0 mm 3 mps 751 mmHg 70%
05:00 +10°C° 0 mm 3 mps 751 mmHg 72%
06:00 +10°C° 0 mm 3 mps 752 mmHg 74%
07:00 +10°C° 0 mm 3 mps 752 mmHg 75%
08:00 +12°C° 0 mm 4 mps 752 mmHg 70%
09:00 +14°C° 0 mm 5 mps 753 mmHg 65%
10:00 +16°C° 0 mm 6 mps 753 mmHg 60%
11:00 +17°C° 0 mm 6 mps 753 mmHg 57%
12:00 +19°C° 0 mm 5 mps 752 mmHg 55%
13:00 +19°C° 0 mm 5 mps 752 mmHg 53%
14:00 +19°C° 0 mm 4 mps 752 mmHg 56%
15:00 +18°C° 0 mm 3 mps 752 mmHg 59%
16:00 +18°C° 0 mm 2 mps 751 mmHg 62%
17:00 +17°C° 0 mm 2 mps 751 mmHg 66%
18:00 +16°C° 0 mm 2 mps 751 mmHg 71%
19:00 +14°C° 0 mm 2 mps 751 mmHg 75%
20:00 +14°C° 0 mm 2 mps 751 mmHg 75%
21:00 +14°C° 0 mm 2 mps 751 mmHg 74%
22:00 +13°C° 0 mm 3 mps 751 mmHg 74%
23:00 +12°C° 0 mm 3 mps 751 mmHg 74%

Day after tomorrow, 23 October, Friday

Time Temperature Precipitation Wind Pressure Humidity
00:00 +12°C° 0 mm 3 mps 751 mmHg 75%
01:00 +12°C° 0 mm 3 mps 751 mmHg 75%
02:00 +11°C° 0 mm 3 mps 751 mmHg 77%
03:00 +11°C° 0 mm 3 mps 751 mmHg 79%
04:00 +11°C° 0 mm 3 mps 750 mmHg 80%
05:00 +11°C° 0 mm 3 mps 750 mmHg 81%
06:00 +11°C° 0 mm 3 mps 750 mmHg 82%
07:00 +11°C° 0 mm 3 mps 750 mmHg 82%
08:00 +13°C° 0 mm 4 mps 750 mmHg 77%
09:00 +14°C° 0 mm 4 mps 750 mmHg 71%
10:00 +16°C° 0 mm 5 mps 750 mmHg 66%
11:00 +17°C° 0 mm 5 mps 750 mmHg 62%
12:00 +19°C° 0 mm 5 mps 750 mmHg 59%
13:00 +21°C° 0 mm 5 mps 749 mmHg 55%
14:00 +20°C° 0 mm 4 mps 749 mmHg 58%
15:00 +20°C° 0 mm 3 mps 749 mmHg 60%
16:00 +19°C° 0 mm 3 mps 748 mmHg 62%
17:00 +18°C° 0 mm 3 mps 748 mmHg 64%
18:00 +17°C° 0 mm 3 mps 748 mmHg 67%
19:00 +16°C° 0 mm 3 mps 748 mmHg 70%
20:00 +16°C° 0 mm 3 mps 748 mmHg 71%
21:00 +14°C° 0 mm 3 mps 748 mmHg 72%
22:00 +14°C° 0 mm 3 mps 748 mmHg 74%
23:00 +14°C° 0 mm 3 mps 748 mmHg 74%

24 October, Saturday

Time Temperature Precipitation Wind Pressure Humidity
00:00 +14°C° 0 mm 3 mps 748 mmHg 74%
01:00 +14°C° 0 mm 4 mps 748 mmHg 75%
02:00 +14°C° 0.2 mm 4 mps 748 mmHg 77%
03:00 +14°C° 0.2 mm 3 mps 748 mmHg 79%
04:00 +14°C° 0.2 mm 3 mps 748 mmHg 82%
05:00 +14°C° 0 mm 3 mps 748 mmHg 83%
06:00 +13°C° 0 mm 3 mps 748 mmHg 84%
07:00 +13°C° 0 mm 3 mps 749 mmHg 84%
08:00 +14°C° 0 mm 3 mps 749 mmHg 81%
09:00 +14°C° 0 mm 3 mps 750 mmHg 78%
10:00 +16°C° 0 mm 3 mps 750 mmHg 74%
11:00 +17°C° 0 mm 3 mps 750 mmHg 73%
12:00 +17°C° 0 mm 3 mps 750 mmHg 72%
13:00 +17°C° 0 mm 4 mps 750 mmHg 71%
14:00 +17°C° 0 mm 3 mps 750 mmHg 71%
15:00 +17°C° 0 mm 3 mps 750 mmHg 70%
16:00 +17°C° 0 mm 2 mps 750 mmHg 69%
17:00 +16°C° 0 mm 2 mps 750 mmHg 73%
18:00 +15°C° 0 mm 2 mps 751 mmHg 77%
19:00 +14°C° 0 mm 1 mps 751 mmHg 80%
20:00 +14°C° 0 mm 1 mps 751 mmHg 82%
21:00 +13°C° 0 mm 1 mps 751 mmHg 83%
22:00 +13°C° 0 mm 2 mps 751 mmHg 85%
23:00 +12°C° 0 mm 2 mps 751 mmHg 86%

25 October, Sunday

Time Temperature Precipitation Wind Pressure Humidity
00:00 +12°C° 0 mm 2 mps 751 mmHg 86%
01:00 +10°C° 0 mm 2 mps 751 mmHg 87%
02:00 +11°C° 0 mm 1 mps 751 mmHg 88%
03:00 +11°C° 0 mm 1 mps 751 mmHg 88%
04:00 +10°C° 0 mm 1 mps 751 mmHg 89%
05:00 +10°C° 0 mm 1 mps 751 mmHg 89%
06:00 +10°C° 0 mm 1 mps 751 mmHg 89%
07:00 +10°C° 0 mm 1 mps 751 mmHg 90%
08:00 +12°C° 0 mm 1 mps 751 mmHg 84%
09:00 +14°C° 0 mm 2 mps 750 mmHg 78%
10:00 +15°C° 0 mm 2 mps 750 mmHg 73%
11:00 +16°C° 0 mm 2 mps 750 mmHg 69%
12:00 +17°C° 0 mm 2 mps 750 mmHg 66%
13:00 +18°C° 0 mm 2 mps 749 mmHg 62%
14:00 +18°C° 0 mm 2 mps 749 mmHg 64%
15:00 +17°C° 0 mm 2 mps 748 mmHg 66%
16:00 +17°C° 0 mm 2 mps 748 mmHg 68%
17:00 +16°C° 0 mm 2 mps 748 mmHg 73%
18:00 +15°C° 0 mm 2 mps 748 mmHg 77%
19:00 +14°C° 0 mm 2 mps 748 mmHg 81%
20:00 +14°C° 0 mm 2 mps 748 mmHg 83%
21:00 +13°C° 0 mm 3 mps 748 mmHg 85%
22:00 +12°C° 0 mm 3 mps 747 mmHg 88%
23:00 +12°C° 0 mm 3 mps 747 mmHg 88%

26 October, Monday

Time Temperature Precipitation Wind Pressure Humidity
00:00 +12°C° 0 mm 3 mps 747 mmHg 89%
01:00 +12°C° 0 mm 3 mps 746 mmHg 89%
02:00 +12°C° 0 mm 3 mps 746 mmHg 89%
03:00 +12°C° 0 mm 3 mps 746 mmHg 89%
04:00 +12°C° 0 mm 3 mps 746 mmHg 89%
05:00 +12°C° 0 mm 3 mps 745 mmHg 89%
06:00 +12°C° 0 mm 3 mps 745 mmHg 90%
07:00 +12°C° 0 mm 3 mps 745 mmHg 90%
08:00 +13°C° 0 mm 4 mps 745 mmHg 85%
09:00 +14°C° 0 mm 4 mps 745 mmHg 80%
10:00 +15°C° 0 mm 4 mps 744 mmHg 75%
11:00 +17°C° 0 mm 4 mps 744 mmHg 70%
12:00 +18°C° 0 mm 4 mps 744 mmHg 66%
13:00 +18°C° 0 mm 4 mps 743 mmHg 61%
14:00 +18°C° 0 mm 3 mps 743 mmHg 63%
15:00 +18°C° 0 mm 2 mps 743 mmHg 64%
16:00 +17°C° 0 mm 2 mps 742 mmHg 66%
17:00 +16°C° 0 mm 2 mps 743 mmHg 69%
18:00 +15°C° 0 mm 1 mps 743 mmHg 72%
19:00 +14°C° 0 mm 1 mps 743 mmHg 75%
20:00 +14°C° 0 mm 2 mps 743 mmHg 76%
21:00 +14°C° 0 mm 2 mps 743 mmHg 77%
22:00 +13°C° 0 mm 2 mps 743 mmHg 78%
23:00 +13°C° 0 mm 2 mps 743 mmHg 81%

27 October, Tuesday

Time Temperature Precipitation Wind Pressure Humidity
00:00 +13°C° 0 mm 2 mps 743 mmHg 85%
01:00 +12°C° 0 mm 2 mps 743 mmHg 88%
02:00 +12°C° 0 mm 2 mps 743 mmHg 89%
03:00 +12°C° 0 mm 2 mps 742 mmHg 90%
04:00 +12°C° 0 mm 2 mps 742 mmHg 91%
05:00 +11°C° 0 mm 3 mps 742 mmHg 90%
06:00 +11°C° 0 mm 3 mps 742 mmHg 89%
07:00 +11°C° 0 mm 3 mps 743 mmHg 88%
08:00 +12°C° 0 mm 4 mps 743 mmHg 79%
09:00 +14°C° 0 mm 4 mps 743 mmHg 70%
10:00 +17°C° 0 mm 4 mps 743 mmHg 61%
11:00 +17°C° 0 mm 5 mps 743 mmHg 57%
12:00 +19°C° 0 mm 5 mps 743 mmHg 53%
13:00 +21°C° 0 mm 5 mps 743 mmHg 48%
14:00 +20°C° 0 mm 4 mps 743 mmHg 51%
15:00 +19°C° 0 mm 3 mps 743 mmHg 54%
16:00 +19°C° 0 mm 3 mps 743 mmHg 57%
17:00 +18°C° 0.2 mm 3 mps 744 mmHg 63%
18:00 +17°C° 0.2 mm 3 mps 744 mmHg 69%
19:00 +16°C° 0.2 mm 3 mps 744 mmHg 75%
20:00 +16°C° 0.1 mm 3 mps 744 mmHg 76%
21:00 +14°C° 0.1 mm 3 mps 745 mmHg 77%
22:00 +14°C° 0.1 mm 4 mps 745 mmHg 77%
23:00 +14°C° 0 mm 4 mps 745 mmHg 79%
Show more